Weather History for Fort Smith, AR

Change the Weather History Date:

Sunday, February 17, 2013

  Actual Average Record
Temperature  
Mean Temperature 51 °F 45 °F  
Max Temperature 70 °F 56 °F 78 °F (1911)
Min Temperature 31 °F 34 °F 4 °F (1903)
Degree Days  
Heating Degree Days 14 20  
Month to date heating degree days 308 380  
Since 1 July heating degree days 2067 2471  
Growing Degree Days 1 (Base 50)    
Moisture  
Dew Point 28 °F    
Average Humidity 46    
Maximum Humidity 72    
Minimum Humidity 20    
Precipitation  
Precipitation 0.00 in 0.10 in 2.30 in (1938)
Month to date precipitation 2.20 1.62  
Year to date precipitation 6.17 4.43  
Sea Level Pressure  
Sea Level Pressure 30.03 in    
Wind  
Wind Speed 7 mph (East)    
Max Wind Speed 20 mph    
Max Gust Speed 24 mph    
Visibility 10 miles    
Events      
T = Trace of Precipitation, MM = Missing Value Source: NWS Daily Summary

Daily Weather History Graph

Daily Weather History Graph

Search for Another Location

Airport:

Trip Planner

Search our weather history database for the weather conditions in past years. The results will help you decide how hot, cold, wet, or windy it might be!

Date:

Astronomy

Feb. 17, 2013 Rise Set
Actual Time 7:01 AM CST 6:02 PM CST
Civil Twilight 6:35 AM CST 6:27 PM CST
Nautical Twilight 6:05 AM CST 6:57 PM CST
Astronomical Twilight 5:36 AM CST 7:27 PM CST
Moon 11:11 AM CST 12:41 AM CST
Length of Visible Light 11h 52m
Length of Day
11h 00m
Waxing Crescent, 49% of the Moon is Illuminated
Feb 17
Waxing Crescent
Feb 17
First Quarter
Feb 25
Full
Mar 4
Last Quarter
Mar 11
New

Hourly Weather History & Observations

Time (CST) Temp. Windchill Dew Point Humidity Pressure Visibility Wind Dir Wind Speed Gust Speed Precip Events Conditions
12:53 AM 32.0 °F 25.6 °F 23.0 °F 69% 30.17 in 10.0 mi NE 6.9 mph - N/A   Clear
1:53 AM 32.0 °F 27.5 °F 24.1 °F 73% 30.16 in 10.0 mi ENE 4.6 mph - N/A   Clear
2:53 AM 33.1 °F 28.7 °F 25.0 °F 72% 30.16 in 10.0 mi ENE 4.6 mph - N/A   Overcast
3:53 AM 35.1 °F 29.3 °F 24.1 °F 64% 30.14 in 10.0 mi ENE 6.9 mph - N/A   Overcast
4:53 AM 35.1 °F 30.1 °F 25.0 °F 67% 30.14 in 10.0 mi ENE 5.8 mph - N/A   Overcast
5:53 AM 34.0 °F 29.8 °F 25.0 °F 70% 30.14 in 10.0 mi NE 4.6 mph - N/A   Mostly Cloudy
6:53 AM 35.1 °F - 25.0 °F 67% 30.14 in 10.0 mi Calm Calm - N/A   Overcast
7:53 AM 37.0 °F 31.0 °F 25.0 °F 62% 30.13 in 10.0 mi ENE 8.1 mph - N/A   Clear
8:53 AM 41.0 °F 35.2 °F 26.1 °F 55% 30.13 in 10.0 mi ENE 9.2 mph - N/A   Clear
9:53 AM 46.9 °F - 26.1 °F 44% 30.12 in 10.0 mi ENE 9.2 mph - N/A   Clear
10:53 AM 52.0 °F - 27.0 °F 38% 30.10 in 10.0 mi ENE 9.2 mph - N/A   Clear
11:53 AM 57.2 °F - 28.4 °F 33% 30.05 in 10.0 mi ENE 10.4 mph - N/A   Clear
12:53 PM 60.1 °F - 32.0 °F 35% 30.01 in 10.0 mi NE 11.5 mph - N/A   Clear
1:53 PM 68.0 °F - 28.9 °F 23% 29.98 in 10.0 mi South 8.1 mph - N/A   Clear
2:53 PM 69.1 °F - 28.9 °F 22% 29.94 in 10.0 mi South 9.2 mph - N/A   Clear
3:53 PM 70.0 °F - 26.1 °F 19% 29.92 in 10.0 mi SSW 11.5 mph 23.0 mph N/A   Clear
4:53 PM 68.0 °F - 28.0 °F 22% 29.91 in 10.0 mi SSW 17.3 mph 23.0 mph N/A   Clear
5:53 PM 64.9 °F - 30.9 °F 28% 29.91 in 10.0 mi South 5.8 mph - N/A   Clear
6:53 PM 61.0 °F - 30.0 °F 31% 29.91 in 10.0 mi ESE 3.5 mph - N/A   Clear
7:53 PM 55.9 °F - 32.0 °F 40% 29.92 in 10.0 mi SE 4.6 mph - N/A   Clear
8:53 PM 52.0 °F - 33.1 °F 49% 29.92 in 10.0 mi ESE 3.5 mph - N/A   Clear
9:53 PM 48.9 °F - 33.1 °F 54% 29.92 in 10.0 mi ENE 3.5 mph - N/A   Clear
11:53 PM 46.0 °F - 34.0 °F 63% 29.89 in 10.0 mi Calm Calm - N/A   Clear